Big Rapids, MI

10:11 AM EDT on August 29, 2016 (GMT -0400)
Roben-Hood

Weather History for KRQB - October, 2011

Change the Weather History Date:

Sunday, October 16, 2011

  Actual Average Record
Temperature  
Mean Temperature 50 °F -  
Max Temperature 55 °F 57 °F 73 °F (1998)
Min Temperature 44 °F 36 °F 22 °F (1977)
Degree Days  
Heating Degree Days 16    
Moisture  
Dew Point 37 °F    
Average Humidity 64    
Maximum Humidity 93    
Minimum Humidity 41    
Precipitation  
Precipitation 0.00 in - - ()
Sea Level Pressure  
Sea Level Pressure 29.70 in    
Wind  
Wind Speed 10 mph (West)    
Max Wind Speed 18 mph    
Max Gust Speed 30 mph    
Visibility 10 miles    
Events Rain    
Averages and records for this station are not official NWS values.
T = Trace of Precipitation, MM = Missing Value Source: NWS Daily Summary

Daily Weather History Graph

Daily Weather History Graph

Search for Another Location

Airport or City:

Trip Planner

Search our weather history database for the weather conditions in past years. The results will help you decide how hot, cold, wet, or windy it might be!

Date:

Astronomy

Oct. 16, 2011 Rise Set
Actual Time 7:57 AM EDT 6:57 PM EDT
Civil Twilight 7:28 AM EDT 7:26 PM EDT
Nautical Twilight 6:54 AM EDT 7:59 PM EDT
Astronomical Twilight 6:21 AM EDT 8:32 PM EDT
Moon 9:34 PM EDT (10/16) 12:22 PM EDT (10/16)
Length of Visible Light 11h 58m
Length of Day
11h 00m
Waning Gibbous, 82% of the Moon is Illuminated
Oct 16
Waning Gibbous
Oct 19
Last Quarter
Oct 26
New
Nov 2
First Quarter
Nov 10
Full

Hourly Weather History & Observations

Time (EDT) Temp. Windchill Dew Point Humidity Pressure Visibility Wind Dir Wind Speed Gust Speed Precip Events Conditions
12:13 AM 48.2 °F - 35.6 °F 62% 29.73 in 10.0 mi West 9.2 mph 18.4 mph N/A   Clear
12:33 AM 50.0 °F - 35.6 °F 58% 29.75 in 10.0 mi West 9.2 mph - N/A   Clear
12:53 AM 50.0 °F - 35.6 °F 58% 29.75 in 10.0 mi West 9.2 mph - N/A   Clear
1:33 AM 50.0 °F - 35.6 °F 58% 29.76 in 10.0 mi West 9.2 mph 19.6 mph N/A   Clear
1:53 AM 50.0 °F - 35.6 °F 58% 29.74 in 10.0 mi West 12.7 mph 19.6 mph N/A   Clear
2:13 AM 50.0 °F - 35.6 °F 58% 29.74 in 10.0 mi West 11.5 mph 18.4 mph N/A   Scattered Clouds
2:33 AM 50.0 °F - 35.6 °F 58% 29.76 in 10.0 mi West 9.2 mph 18.4 mph N/A   Scattered Clouds
2:53 AM 50.0 °F - 35.6 °F 58% 29.75 in 10.0 mi West 11.5 mph 19.6 mph N/A   Mostly Cloudy
3:14 AM 50.0 °F - 35.6 °F 58% 29.74 in 10.0 mi WSW 11.5 mph - N/A   Overcast
3:33 AM 50.0 °F - 35.6 °F 58% 29.74 in 10.0 mi West 11.5 mph 19.6 mph N/A   Overcast
3:53 AM 51.8 °F - 35.6 °F 54% 29.76 in 10.0 mi West 10.4 mph 21.9 mph N/A   Overcast
4:14 AM 51.8 °F - 35.6 °F 54% 29.75 in 10.0 mi West 9.2 mph 18.4 mph N/A   Overcast
4:53 AM 46.4 °F 40.4 °F 37.4 °F 71% 29.76 in 10.0 mi West 13.8 mph 20.7 mph N/A Rain Light Rain
5:13 AM 46.4 °F 41.9 °F 41.0 °F 81% 29.76 in 10.0 mi West 9.2 mph - N/A Rain Light Rain
5:33 AM 44.6 °F 40.7 °F 41.0 °F 87% 29.76 in 10.0 mi West 6.9 mph - N/A Rain Light Rain
5:54 AM 44.6 °F 40.7 °F 41.0 °F 87% 29.75 in 7.0 mi SW 6.9 mph - N/A Rain Light Rain
6:13 AM 44.6 °F 40.2 °F 42.8 °F 93% 29.75 in 10.0 mi SW 8.1 mph - N/A Rain Light Rain
6:33 AM 44.6 °F 42.2 °F 42.8 °F 93% 29.75 in 10.0 mi WSW 4.6 mph - N/A Rain Light Rain
7:13 AM 44.6 °F 40.2 °F 42.8 °F 93% 29.75 in 5.0 mi SW 8.1 mph - N/A Rain Light Rain
7:33 AM 44.6 °F 40.2 °F 41.0 °F 87% 29.74 in 10.0 mi WSW 8.1 mph - N/A Rain Light Rain
7:53 AM 44.6 °F 40.2 °F 41.0 °F 87% 29.74 in 7.0 mi WSW 8.1 mph - N/A Rain Light Rain
8:13 AM 44.6 °F 40.7 °F 42.8 °F 93% 29.74 in 4.0 mi WSW 6.9 mph - N/A Rain Light Rain
8:33 AM 44.6 °F 40.7 °F 42.8 °F 93% 29.75 in 5.0 mi WSW 6.9 mph 16.1 mph N/A Rain Light Rain
9:13 AM 44.6 °F 41.4 °F 42.8 °F 93% 29.75 in 7.0 mi West 5.8 mph - N/A Rain Light Rain
9:33 AM 44.6 °F 40.7 °F 42.8 °F 93% 29.74 in 7.0 mi WSW 6.9 mph - N/A Rain Light Rain
9:53 AM 44.6 °F 42.2 °F 42.8 °F 93% 29.73 in 10.0 mi WSW 4.6 mph - N/A   Overcast
10:13 AM 44.6 °F 41.4 °F 42.8 °F 93% 29.72 in 10.0 mi WSW 5.8 mph - N/A   Overcast
10:33 AM 46.4 °F 42.9 °F 42.8 °F 87% 29.71 in 10.0 mi WSW 6.9 mph - N/A   Overcast
10:53 AM 46.4 °F 42.9 °F 42.8 °F 87% 29.70 in 10.0 mi WSW 6.9 mph - N/A   Overcast
11:13 AM 48.2 °F - 42.8 °F 82% 29.70 in 10.0 mi West 6.9 mph - N/A   Scattered Clouds
11:33 AM 51.8 °F - 42.8 °F 71% 29.69 in 10.0 mi WSW 8.1 mph - N/A   Clear
12:13 PM 53.6 °F - 42.8 °F 67% 29.68 in 10.0 mi WNW 13.8 mph 19.6 mph N/A   Scattered Clouds
12:33 PM 51.8 °F - 41.0 °F 67% 29.68 in 10.0 mi WNW 10.4 mph 20.7 mph N/A   Overcast
12:53 PM 53.6 °F - 41.0 °F 62% 29.68 in 10.0 mi West 12.7 mph 19.6 mph N/A   Scattered Clouds
1:33 PM 53.6 °F - 35.6 °F 51% 29.66 in 10.0 mi West 13.8 mph 21.9 mph N/A   Mostly Cloudy
1:53 PM 53.6 °F - 35.6 °F 51% 29.66 in 10.0 mi WNW 16.1 mph 23.0 mph N/A   Mostly Cloudy
2:13 PM 53.6 °F - 33.8 °F 47% 29.66 in 10.0 mi West 15.0 mph 24.2 mph N/A   Mostly Cloudy
2:33 PM 53.6 °F - 33.8 °F 47% 29.65 in 10.0 mi WNW 18.4 mph 24.2 mph N/A   Mostly Cloudy
2:53 PM 53.6 °F - 32.0 °F 44% 29.64 in 10.0 mi WNW 16.1 mph 26.5 mph N/A   Scattered Clouds
3:13 PM 55.4 °F - 32.0 °F 41% 29.64 in 10.0 mi West 17.3 mph 29.9 mph N/A   Clear
3:33 PM 53.6 °F - 32.0 °F 44% 29.64 in 10.0 mi West 18.4 mph 26.5 mph N/A   Scattered Clouds
3:53 PM 55.4 °F - 32.0 °F 41% 29.64 in 10.0 mi WNW 15.0 mph 26.5 mph N/A   Scattered Clouds
4:13 PM 55.4 °F - 32.0 °F 41% 29.64 in 10.0 mi West 18.4 mph 25.3 mph N/A   Scattered Clouds
4:33 PM 53.6 °F - 32.0 °F 44% 29.64 in 10.0 mi West 13.8 mph 21.9 mph N/A   Mostly Cloudy
4:53 PM 53.6 °F - 32.0 °F 44% 29.64 in 10.0 mi West 16.1 mph 26.5 mph N/A   Mostly Cloudy
5:13 PM 53.6 °F - 32.0 °F 44% 29.63 in 10.0 mi West 15.0 mph 25.3 mph N/A   Mostly Cloudy
5:34 PM 53.6 °F - 32.0 °F 44% 29.63 in 10.0 mi West 17.3 mph 24.2 mph N/A   Mostly Cloudy
5:53 PM 53.6 °F - 32.0 °F 44% 29.63 in 10.0 mi West 15.0 mph 24.2 mph N/A   Overcast
6:13 PM 53.6 °F - 33.8 °F 47% 29.63 in 10.0 mi West 13.8 mph 23.0 mph N/A   Mostly Cloudy
6:34 PM 53.6 °F - 32.0 °F 44% 29.63 in 10.0 mi West 13.8 mph 21.9 mph N/A   Mostly Cloudy
6:53 PM 51.8 °F - 32.0 °F 47% 29.63 in 10.0 mi West 16.1 mph 23.0 mph N/A   Scattered Clouds
7:13 PM 51.8 °F - 32.0 °F 47% 29.64 in 10.0 mi West 9.2 mph 25.3 mph N/A   Scattered Clouds
7:33 PM 51.8 °F - 32.0 °F 47% 29.64 in 10.0 mi West 9.2 mph 19.6 mph N/A   Scattered Clouds
7:53 PM 51.8 °F - 32.0 °F 47% 29.64 in 10.0 mi West 8.1 mph 19.6 mph N/A   Mostly Cloudy
8:13 PM 50.0 °F - 32.0 °F 50% 29.65 in 10.0 mi West 8.1 mph - N/A   Mostly Cloudy
8:34 PM 50.0 °F - 32.0 °F 50% 29.65 in 10.0 mi West 8.1 mph - N/A   Scattered Clouds
8:53 PM 50.0 °F - 32.0 °F 50% 29.65 in 10.0 mi West 8.1 mph - N/A   Clear
9:13 PM 48.2 °F - 32.0 °F 54% 29.65 in 10.0 mi West 6.9 mph - N/A   Clear
9:33 PM 48.2 °F - 32.0 °F 54% 29.65 in 10.0 mi WSW 8.1 mph - N/A   Clear
9:53 PM 48.2 °F - 32.0 °F 54% 29.66 in 10.0 mi West 10.4 mph - N/A   Clear
10:13 PM 48.2 °F - 32.0 °F 54% 29.66 in 10.0 mi West 8.1 mph - N/A   Mostly Cloudy
10:34 PM 48.2 °F - 32.0 °F 54% 29.66 in 10.0 mi WSW 9.2 mph - N/A   Scattered Clouds
10:53 PM 50.0 °F - 32.0 °F 50% 29.66 in 10.0 mi WSW 6.9 mph - N/A   Mostly Cloudy
11:13 PM 50.0 °F - 30.2 °F 47% 29.65 in 10.0 mi West 11.5 mph 17.3 mph N/A   Overcast
11:33 PM 50.0 °F - 30.2 °F 47% 29.65 in 10.0 mi West 10.4 mph 18.4 mph N/A   Mostly Cloudy
11:53 PM 50.0 °F - 30.2 °F 47% 29.65 in 10.0 mi West 16.1 mph 25.3 mph N/A   Scattered Clouds